Location: Bryn Mawr
(34.0483°N, 117.2309°W)
Time: 12:07:03
(UTC+00:00)

Daily predictions for brighter satellites

Satellite Brightness Start Highest point End
(mag) Time Altitude Azimuth Time Altitude Azimuth Time Altitude Azimuth
Cosmos 1484 Rocket 4.3 12:00:57 10° NNE 12:04:22 34° E 12:07:46 10° SSE
PSLV R/B 3.8 12:02:19 10° N 12:06:35 52° WNW 12:10:25 12° SSW
OAO 1 Rocket 4.5 12:03:32 17° W 12:07:45 89° N 12:13:09 10° E
OAO 3 Rocket 3.3 12:07:27 12° W 12:12:09 81° N 12:17:06 10° E
Cosmos 1844 Rocket 2.8 12:07:41 13° SW 12:12:31 56° WNW 12:18:00 10° NNE
Hubble Space Telescope 2.1 12:09:58 15° SW 12:12:34 26° SSE 12:16:04 10° ESE
H-2A R/B (2) 2.3 12:12:19 17° SW 12:13:54 28° S 12:17:39 10° ESE
Cosmos 2228 4.3 12:12:56 16° WSW 12:15:15 23° WNW 12:18:48 10° NNW
deb Chang Zheng 4 3.6 12:12:21 10° N 12:16:41 66° WNW 12:20:59 10° SSW
Atlas Centaur 2 3.1 12:11:47 14° WSW 12:18:05 63° S 12:26:23 10° E
SAR-Lupe-4 3.5 12:21:45 10° S 12:25:18 81° WSW 12:28:54 10° NNW
NOSS 2-2 (D) 3.5 12:24:01 12° SW 12:27:12 44° NW 12:30:43 10° NNE
NOSS 2-2 (E) 4.0 12:24:39 12° WSW 12:27:31 32° NW 12:30:54 10° NNE
Cosmos 2058 Rocket 3.8 12:24:47 10° SSW 12:28:54 36° W 12:33:02 10° NNW
USA 267 3.3 12:25:07 10° SE 12:31:40 87° SW 12:38:14 10° NW
Lacrosse 5 rocket 3.8 12:31:03 10° S 12:34:32 22° ESE 12:38:05 10° ENE
Cosmos 1689 Rocket 3.0 12:34:53 10° SSE 12:37:42 51° ENE 12:40:33 10° N
SAR-Lupe-1 4.2 12:37:03 10° S 12:40:32 52° W 12:44:02 10° NNW
H-2A R/B 3.7 12:38:50 10° SW 12:40:59 14° W 12:43:08 10° WNW
ADEOS 3.9 12:35:59 10° N 12:41:00 49° WNW 12:46:00 10° SW
Meteor 2-1 Rocket 4.4 12:37:35 10° S 12:43:23 87° E 12:49:18 10° N
CZ-4B R/B 1.9 12:41:43 10° SSW 12:44:48 36° W 12:47:49 10° NNW
In-Cosmos 22 Rocket 4.3 12:41:44 10° N 12:47:36 82° W 12:53:22 10° S
OAO 2 Rocket 3.5 12:42:24 10° W 12:47:42 90° E 12:52:53 10° E
